| time (UTC) | temp F | wind direction | speed MPH | gust MPH | rain 1hr in | rain 24hr in | rain mn in | humidity % | barometer mb |
| 20260506144823 | 52 | 317 | 11.0 | 14.0 | 0.00 | 2.64 | 0.28 | 86 | 1010.4 |
| 20260506144321 | 52 | 321 | 8.0 | 15.0 | 0.00 | 2.64 | 0.28 | 86 | 1010.4 |
| 20260506143817 | 52 | 319 | 11.0 | 15.0 | 0.00 | 2.64 | 0.28 | 85 | 1010.4 |
| 20260506143316 | 52 | 355 | 9.0 | 16.0 | 0.00 | 2.64 | 0.28 | 85 | 1010.4 |
| 20260506142830 | 52 | 321 | 12.0 | 16.0 | 0.00 | 2.64 | 0.28 | 85 | 1010.4 |
| 20260506142349 | 52 | 346 | 8.0 | 15.0 | 0.00 | 2.64 | 0.28 | 85 | 1010.4 |
| 20260506141822 | 52 | 325 | 8.0 | 15.0 | 0.00 | 2.64 | 0.28 | 86 | 1010.4 |
| 20260506141320 | 52 | 355 | 11.0 | 15.0 | 0.00 | 2.64 | 0.28 | 86 | 1010.5 |
| 20260506140815 | 52 | 348 | 9.0 | 17.0 | 0.00 | 2.64 | 0.28 | 85 | 1010.4 |
| 20260506140314 | 53 | 347 | 12.0 | 17.0 | 0.00 | 2.64 | 0.28 | 84 | 1010.4 |
| 20260506135829 | 53 | 344 | 8.0 | 15.0 | 0.00 | 2.68 | 0.28 | 85 | 1010.3 |
| 20260506135325 | 53 | 334 | 11.0 | 14.0 | 0.00 | 2.68 | 0.28 | 85 | 1010.2 |
| 20260506134820 | 53 | 342 | 10.0 | 14.0 | 0.00 | 2.68 | 0.28 | 85 | 1010.3 |
| 20260506134319 | 53 | 355 | 10.0 | 13.0 | 0.00 | 2.68 | 0.28 | 86 | 1010.2 |
| 20260506133816 | 53 | 344 | 10.0 | 15.0 | 0.00 | 2.68 | 0.28 | 85 | 1010.3 |
| 20260506133332 | 53 | 9 | 7.0 | 15.0 | 0.00 | 2.68 | 0.28 | 86 | 1010.3 |
| 20260506132828 | 53 | 355 | 10.0 | 14.0 | 0.00 | 2.68 | 0.28 | 84 | 1010.3 |
| 20260506132324 | 53 | 9 | 9.0 | 12.0 | 0.00 | 2.68 | 0.28 | 85 | 1010.3 |
| 20260506131820 | 54 | 339 | 9.0 | 12.0 | 0.00 | 2.68 | 0.28 | 84 | 1010.3 |
| 20260506131338 | 54 | 344 | 9.0 | 13.0 | 0.00 | 2.68 | 0.28 | 84 | 1010.3 |
| 20260506130834 | 54 | 336 | 7.0 | 15.0 | 0.00 | 2.68 | 0.28 | 84 | 1010.2 |
| 20260506130332 | 54 | 340 | 8.0 | 15.0 | 0.00 | 2.68 | 0.28 | 84 | 1010.2 |
| 20260506125827 | 54 | 350 | 8.0 | 12.0 | 0.00 | 2.72 | 0.28 | 84 | 1010.2 |
| 20260506125324 | 53 | 343 | 7.0 | 13.0 | 0.00 | 2.72 | 0.28 | 84 | 1010.1 |
| 20260506124838 | 53 | 347 | 10.0 | 13.0 | 0.00 | 2.72 | 0.28 | 83 | 1010.1 |
| 20260506124351 | 53 | 355 | 9.0 | 13.0 | 0.00 | 2.72 | 0.28 | 84 | 1010.2 |
| 20260506123843 | 53 | 338 | 8.0 | 13.0 | 0.00 | 2.72 | 0.28 | 85 | 1010.1 |
| 20260506123320 | 53 | 338 | 6.0 | 13.0 | 0.00 | 2.72 | 0.28 | 86 | 1010.1 |
| 20260506122814 | 53 | 355 | 10.0 | 12.0 | 0.00 | 2.72 | 0.28 | 85 | 1010.1 |
| 20260506122338 | 52 | 343 | 8.0 | 12.0 | 0.00 | 2.72 | 0.28 | 86 | 1010.1 |
| 20260506121831 | 52 | 335 | 6.0 | 14.0 | 0.00 | 2.72 | 0.28 | 86 | 1010.0 |
| 20260506121330 | 52 | 325 | 9.0 | 15.0 | 0.00 | 2.72 | 0.28 | 86 | 1010.0 |
| 20260506120825 | 52 | 355 | 8.0 | 15.0 | 0.00 | 2.72 | 0.28 | 87 | 1010.0 |
| 20260506120342 | 51 | 355 | 8.0 | 13.0 | 0.00 | 2.72 | 0.28 | 87 | 1009.9 |
| 20260506115817 | 51 | 324 | 9.0 | 12.0 | 0.00 | 2.95 | 0.28 | 87 | 1009.9 |
| 20260506115335 | 51 | 309 | 8.0 | 16.0 | 0.00 | 2.95 | 0.28 | 87 | 1009.9 |
| 20260506114849 | 51 | 360 | 12.0 | 18.0 | 0.00 | 2.95 | 0.28 | 87 | 1009.9 |
| 20260506114327 | 51 | 338 | 12.0 | 15.0 | 0.00 | 2.95 | 0.28 | 87 | 1009.8 |
| 20260506113822 | 51 | 325 | 13.0 | 16.0 | 0.00 | 2.95 | 0.28 | 87 | 1009.7 |
| 20260506113322 | 51 | 319 | 11.0 | 16.0 | 0.00 | 2.95 | 0.28 | 86 | 1009.7 |
| 20260506112817 | 52 | 338 | 10.0 | 16.0 | 0.00 | 2.95 | 0.28 | 87 | 1009.6 |
| 20260506112314 | 52 | 336 | 12.0 | 16.0 | 0.00 | 2.95 | 0.28 | 87 | 1009.7 |
| 20260506111836 | 51 | 325 | 12.0 | 16.0 | 0.00 | 2.95 | 0.28 | 87 | 1009.6 |
| 20260506111354 | 52 | 319 | 9.0 | 15.0 | 0.00 | 2.95 | 0.28 | 87 | 1009.6 |
| 20260506110829 | 52 | 339 | 9.0 | 16.0 | 0.00 | 2.95 | 0.28 | 87 | 1009.5 |
| 20260506110328 | 51 | 342 | 12.0 | 16.0 | 0.00 | 2.95 | 0.28 | 87 | 1009.5 |
| 20260506105825 | 51 | 351 | 8.0 | 15.0 | 0.00 | 2.99 | 0.28 | 88 | 1009.6 |
| 20260506105323 | 51 | 343 | 9.0 | 15.0 | 0.00 | 2.99 | 0.28 | 88 | 1009.5 |
| 20260506104817 | 51 | 331 | 10.0 | 15.0 | 0.00 | 2.99 | 0.28 | 89 | 1009.5 |
| 20260506104314 | 50 | 351 | 11.0 | 15.0 | 0.00 | 2.99 | 0.28 | 89 | 1009.6 |
| 20260506103829 | 50 | 333 | 10.0 | 16.0 | 0.00 | 2.99 | 0.28 | 89 | 1009.5 |
| 20260506103328 | 51 | 351 | 11.0 | 18.0 | 0.00 | 2.99 | 0.28 | 89 | 1009.5 |
| 20260506102839 | 50 | 333 | 13.0 | 18.0 | 0.00 | 2.99 | 0.28 | 89 | 1009.6 |
| 20260506102316 | 50 | 330 | 11.0 | 18.0 | 0.00 | 2.99 | 0.28 | 89 | 1009.6 |
| 20260506101830 | 50 | 334 | 10.0 | 15.0 | 0.00 | 2.99 | 0.28 | 89 | 1009.5 |
| 20260506101328 | 50 | 313 | 9.0 | 15.0 | 0.00 | 2.99 | 0.28 | 89 | 1009.4 |
| 20260506100821 | 50 | 331 | 9.0 | 15.0 | 0.00 | 2.99 | 0.28 | 90 | 1009.4 |
| 20260506100322 | 50 | 28 | 9.0 | 15.0 | 0.00 | 2.99 | 0.28 | 90 | 1009.4 |
| 20260506095816 | 50 | 9 | 8.0 | 16.0 | 0.00 | 2.99 | 0.28 | 89 | 1009.2 |
| 20260506095314 | 50 | 328 | 12.0 | 18.0 | 0.00 | 2.99 | 0.28 | 90 | 1009.2 |
| 20260506094829 | 50 | 341 | 12.0 | 18.0 | 0.00 | 2.99 | 0.28 | 90 | 1009.2 |
| 20260506094326 | 50 | 323 | 10.0 | 16.0 | 0.00 | 2.99 | 0.28 | 90 | 1009.1 |
| 20260506093823 | 50 | 326 | 11.0 | 17.0 | 0.00 | 2.99 | 0.28 | 91 | 1009.1 |
| 20260506093320 | 50 | 332 | 13.0 | 17.0 | 0.00 | 2.99 | 0.28 | 91 | 1009.1 |
| 20260506092836 | 49 | 325 | 13.0 | 17.0 | 0.00 | 2.99 | 0.28 | 92 | 1009.1 |
| 20260506092332 | 49 | 329 | 12.0 | 16.0 | 0.00 | 2.99 | 0.28 | 92 | 1009.1 |
| 20260506091827 | 48 | 332 | 11.0 | 17.0 | 0.00 | 2.99 | 0.28 | 91 | 1009.1 |
| 20260506091345 | 48 | 329 | 11.0 | 17.0 | 0.00 | 2.99 | 0.28 | 91 | 1009.0 |
| 20260506090818 | 49 | 360 | 10.0 | 17.0 | 0.00 | 2.99 | 0.28 | 91 | 1009.0 |
| 20260506090315 | 48 | 316 | 9.0 | 16.0 | 0.00 | 2.99 | 0.28 | 92 | 1009.0 |
| 20260506085831 | 48 | 330 | 9.0 | 16.0 | 0.00 | 2.99 | 0.28 | 92 | 1009.0 |
| 20260506085330 | 48 | 318 | 10.0 | 15.0 | 0.00 | 2.99 | 0.28 | 92 | 1009.0 |
| 20260506084826 | 48 | 316 | 9.0 | 15.0 | 0.00 | 2.99 | 0.28 | 92 | 1009.0 |
| 20260506084323 | 48 | 355 | 9.0 | 15.0 | 0.00 | 2.99 | 0.28 | 92 | 1008.9 |
| 20260506083817 | 48 | 335 | 11.0 | 17.0 | 0.04 | 2.99 | 0.28 | 92 | 1008.9 |
| 20260506083314 | 48 | 325 | 11.0 | 17.0 | 0.04 | 2.99 | 0.28 | 92 | 1008.9 |
| 20260506082829 | 48 | 331 | 10.0 | 13.0 | 0.08 | 2.99 | 0.28 | 92 | 1008.8 |
| 20260506082326 | 48 | 313 | 8.0 | 12.0 | 0.08 | 2.99 | 0.28 | 92 | 1008.8 |
| 20260506081821 | 48 | 294 | 8.0 | 12.0 | 0.12 | 2.99 | 0.28 | 92 | 1008.8 |
| 20260506081317 | 48 | 336 | 6.0 | 12.0 | 0.16 | 2.99 | 0.28 | 93 | 1008.7 |
| 20260506080833 | 48 | 348 | 7.0 | 13.0 | 0.16 | 2.99 | 0.28 | 93 | 1008.7 |
| 20260506080332 | 48 | 325 | 7.0 | 12.0 | 0.20 | 2.99 | 0.28 | 93 | 1008.7 |
| 20260506073341 | 48 | 334 | 11.0 | 17.0 | 0.28 | 2.95 | 0.28 | 93 | 1008.5 |
| 20260506072814 | 49 | 313 | 6.0 | 14.0 | 0.28 | 2.91 | 0.27 | 93 | 1008.4 |
| 20260506072328 | 48 | 323 | 9.0 | 14.0 | 0.28 | 2.91 | 0.27 | 93 | 1008.4 |
| 20260506071824 | 48 | 338 | 9.0 | 13.0 | 0.28 | 2.87 | 0.26 | 93 | 1008.4 |
| 20260506071320 | 48 | 331 | 9.0 | 12.0 | 0.24 | 2.83 | 0.25 | 93 | 1008.4 |
| 20260506070835 | 48 | 341 | 9.0 | 12.0 | 0.24 | 2.83 | 0.25 | 93 | 1008.4 |
| 20260506070359 | 48 | 329 | 8.0 | 12.0 | 0.24 | 2.80 | 0.24 | 93 | 1008.4 |
| 20260506062328 | 50 | 336 | 5.0 | 10.0 | 0.08 | 2.64 | 0.21 | 93 | 1007.7 |
| 20260506061824 | 50 | 342 | 5.0 | 9.0 | 0.08 | 2.60 | 0.20 | 93 | 1007.7 |
| 20260506061323 | 50 | 348 | 5.0 | 11.0 | 0.08 | 2.60 | 0.20 | 93 | 1007.6 |
| 20260506060819 | 49 | 337 | 8.0 | 11.0 | 0.08 | 2.60 | 0.20 | 93 | 1007.6 |
| 20260506060317 | 49 | 22 | 6.0 | 10.0 | 0.04 | 2.56 | 0.20 | 93 | 1007.5 |
| 20260506051317 | 50 | 19 | 9.0 | 14.0 | 0.00 | 2.52 | 0.19 | 93 | 1007.0 |
| 20260506050832 | 50 | 342 | 7.0 | 14.0 | 0.00 | 2.52 | 0.19 | 93 | 1007.0 |
| 20260506050328 | 50 | 360 | 8.0 | 16.0 | 0.00 | 2.52 | 0.19 | 93 | 1006.9 |
| 20260506044830 | 50 | 11 | 10.0 | 15.0 | 0.00 | 2.52 | 0.19 | 93 | 1006.8 |
| 20260506044328 | 50 | 360 | 7.0 | 15.0 | 0.00 | 2.52 | 0.19 | 93 | 1006.8 |
| 20260506043822 | 50 | 335 | 8.0 | 15.0 | 0.00 | 2.52 | 0.19 | 93 | 1006.7 |
| 20260506043320 | 50 | 360 | 6.0 | 12.0 | 0.00 | 2.52 | 0.19 | 93 | 1006.8 |
| 20260506042816 | 50 | 20 | 7.0 | 12.0 | 0.00 | 2.52 | 0.19 | 93 | 1006.7 |
| 20260506042332 | 50 | 339 | 7.0 | 13.0 | 0.00 | 2.52 | 0.19 | 93 | 1006.7 |
| 20260506041829 | 50 | 355 | 9.0 | 14.0 | 0.00 | 2.52 | 0.19 | 93 | 1006.7 |
| 20260506041327 | 50 | 360 | 10.0 | 14.0 | 0.00 | 2.52 | 0.19 | 93 | 1006.6 |
| 20260506040822 | 50 | 335 | 9.0 | 14.0 | 0.00 | 2.52 | 0.19 | 93 | 1006.6 |
| 20260506040340 | 50 | 346 | 10.0 | 14.0 | 0.00 | 2.52 | 0.19 | 93 | 1006.7 |
| 20260506035814 | 50 | 349 | 8.0 | 12.0 | 0.00 | 2.52 | 0.19 | 93 | 1006.8 |
| 20260506035400 | 50 | 344 | 7.0 | 11.0 | 0.00 | 2.52 | 0.19 | 93 | 1006.8 |
| 20260506034834 | 50 | 339 | 6.0 | 13.0 | 0.00 | 2.52 | 0.19 | 93 | 1006.8 |
| 20260506034332 | 50 | 332 | 9.0 | 13.0 | 0.00 | 2.52 | 0.19 | 93 | 1006.8 |
| 20260506033828 | 50 | 318 | 6.0 | 11.0 | 0.00 | 2.52 | 0.19 | 93 | 1006.8 |
| 20260506033326 | 51 | 312 | 6.0 | 11.0 | 0.00 | 2.52 | 0.19 | 93 | 1006.8 |
| 20260506032822 | 51 | 324 | 4.0 | 9.0 | 0.04 | 2.52 | 0.19 | 93 | 1006.8 |
| 20260506032338 | 51 | 319 | 5.0 | 9.0 | 0.04 | 2.52 | 0.19 | 93 | 1006.8 |
| 20260506031854 | 51 | 305 | 4.0 | 9.0 | 0.08 | 2.52 | 0.19 | 93 | 1006.7 |
| 20260506031330 | 51 | 340 | 6.0 | 10.0 | 0.16 | 2.52 | 0.19 | 93 | 1006.7 |
| 20260506030833 | 51 | 329 | 6.0 | 11.0 | 0.28 | 2.52 | 0.19 | 94 | 1006.7 |
| 20260506030331 | 51 | 342 | 7.0 | 11.0 | 0.39 | 2.52 | 0.19 | 93 | 1006.8 |
| 20260506025826 | 51 | 325 | 5.0 | 9.0 | 0.51 | 2.52 | 0.19 | 94 | 1006.8 |
| 20260506025323 | 51 | 325 | 3.0 | 8.0 | 0.63 | 2.52 | 0.19 | 94 | 1006.8 |
| 20260506024818 | 51 | 321 | 4.0 | 9.0 | 0.79 | 2.52 | 0.19 | 94 | 1006.8 |
| 20260506024316 | 51 | 317 | 4.0 | 9.0 | 0.79 | 2.52 | 0.19 | 94 | 1006.7 |
| 20260506023830 | 51 | 331 | 6.0 | 9.0 | 0.79 | 2.52 | 0.19 | 93 | 1006.8 |
| 20260506023314 | 51 | 329 | 4.0 | 8.0 | 0.83 | 2.52 | 0.19 | 94 | 1006.8 |
| 20260506022827 | 51 | 317 | 4.0 | 9.0 | 0.79 | 2.48 | 0.18 | 94 | 1006.8 |
| 20260506022324 | 51 | 349 | 5.0 | 9.0 | 0.83 | 2.48 | 0.18 | 94 | 1006.8 |
| 20260506021821 | 51 | 342 | 7.0 | 12.0 | 0.79 | 2.44 | 0.17 | 93 | 1006.7 |
| 20260506021320 | 51 | 350 | 9.0 | 13.0 | 0.71 | 2.32 | 0.15 | 93 | 1006.6 |
| 20260506020815 | 51 | 351 | 10.0 | 13.0 | 0.59 | 2.20 | 0.13 | 93 | 1006.5 |
| 20260506020332 | 51 | 19 | 9.0 | 13.0 | 0.51 | 2.13 | 0.11 | 93 | 1006.6 |
| 20260506015827 | 51 | 325 | 9.0 | 12.0 | 0.39 | 2.01 | 0.09 | 93 | 1006.6 |
| 20260506015323 | 52 | 325 | 6.0 | 9.0 | 0.28 | 1.85 | 0.06 | 93 | 1006.7 |
| 20260506014817 | 52 | 317 | 3.0 | 9.0 | 0.16 | 1.73 | 0.03 | 93 | 1006.7 |
| 20260506014334 | 52 | 331 | 7.0 | 9.0 | 0.16 | 1.73 | 0.03 | 93 | 1006.7 |
| 20260506013828 | 52 | 321 | 5.0 | 10.0 | 0.16 | 1.73 | 0.03 | 93 | 1006.7 |
| 20260506013327 | 52 | 346 | 6.0 | 11.0 | 0.12 | 1.69 | 0.02 | 94 | 1006.6 |
| 20260506012821 | 52 | 348 | 7.0 | 11.0 | 0.08 | 1.65 | 0.02 | 94 | 1006.5 |
| 20260506012341 | 52 | 340 | 7.0 | 11.0 | 0.08 | 1.65 | 0.02 | 94 | 1006.5 |
| 20260506011838 | 52 | 331 | 7.0 | 11.0 | 0.08 | 1.65 | 0.02 | 94 | 1006.5 |
| 20260506011314 | 52 | 23 | 6.0 | 12.0 | 0.04 | 1.61 | 0.01 | 94 | 1006.5 |
| 20260506010831 | 52 | 322 | 9.0 | 12.0 | 0.04 | 1.61 | 0.01 | 93 | 1006.4 |
| 20260506010330 | 52 | 336 | 6.0 | 11.0 | 0.04 | 1.61 | 0.01 | 94 | 1006.5 |
| 20260506005846 | 52 | 335 | 9.0 | 11.0 | 0.00 | 1.57 | 0.00 | 94 | 1006.5 |
| 20260506005324 | 52 | 333 | 8.0 | 11.0 | 0.00 | 1.57 | 0.00 | 94 | 1006.4 |
| 20260506004820 | 52 | 327 | 6.0 | 9.0 | 0.00 | 1.57 | 0.00 | 94 | 1006.5 |
| 20260506004318 | 52 | 298 | 5.0 | 9.0 | 0.00 | 1.57 | 0.00 | 94 | 1006.5 |
| 20260506003833 | 52 | 319 | 4.0 | 9.0 | 0.00 | 1.57 | 0.00 | 94 | 1006.5 |
| 20260506003353 | 52 | 317 | 4.0 | 8.0 | 0.00 | 1.57 | 0.00 | 94 | 1006.5 |
| 20260506002847 | 52 | 313 | 4.0 | 9.0 | 0.00 | 1.57 | 0.00 | 94 | 1006.5 |
| 20260506002324 | 52 | 301 | 6.0 | 9.0 | 0.00 | 1.57 | 0.00 | 94 | 1006.5 |
| 20260506001819 | 52 | 343 | 6.0 | 9.0 | 0.00 | 1.57 | 0.00 | 93 | 1006.5 |
| 20260506001316 | 52 | 337 | 6.0 | 9.0 | 0.00 | 1.57 | 0.00 | 94 | 1006.5 |
| 20260506000831 | 53 | 290 | 7.0 | 9.0 | 0.00 | 1.57 | 0.00 | 94 | 1006.6 |
| 20260506000330 | 53 | 303 | 6.0 | 10.0 | 0.00 | 1.57 | 0.00 | 94 | 1006.6 |
| 20260505235824 | 53 | 302 | 4.0 | 10.0 | 0.00 | 1.57 | 0.00 | 94 | 1006.6 |
| 20260505235320 | 53 | 312 | 5.0 | 8.0 | 0.00 | 1.57 | 0.00 | 94 | 1006.7 |
| 20260505234815 | 53 | 284 | 4.0 | 8.0 | 0.00 | 1.57 | 0.00 | 94 | 1006.7 |
| 20260505234328 | 53 | 292 | 5.0 | 8.0 | 0.00 | 1.57 | 0.00 | 94 | 1006.8 |
| 20260505233823 | 53 | 297 | 4.0 | 8.0 | 0.00 | 1.57 | 0.00 | 94 | 1006.7 |
| 20260505233341 | 53 | 288 | 3.0 | 6.0 | 0.00 | 1.57 | 0.00 | 94 | 1006.8 |
| 20260505232833 | 53 | 288 | 3.0 | 7.0 | 0.00 | 1.57 | 0.00 | 94 | 1006.8 |
| 20260505232330 | 53 | 297 | 2.0 | 4.0 | 0.00 | 1.57 | 0.00 | 94 | 1006.8 |
| 20260505231824 | 53 | 293 | 2.0 | 3.0 | 0.00 | 1.57 | 0.00 | 94 | 1006.8 |
| 20260505231343 | 53 | 292 | 1.0 | 2.0 | 0.00 | 1.57 | 0.00 | 94 | 1006.9 |
| 20260505230818 | 53 | 300 | 1.0 | 2.0 | 0.00 | 1.57 | 0.00 | 94 | 1006.8 |
| 20260505230316 | 53 | 319 | 1.0 | 3.0 | 0.00 | 1.57 | 0.00 | 94 | 1006.9 |
| 20260505225831 | 53 | 335 | 1.0 | 3.0 | 0.00 | 1.57 | 0.00 | 94 | 1006.9 |
| 20260505225327 | 53 | 267 | 1.0 | 3.0 | 0.00 | 1.57 | 0.00 | 94 | 1006.9 |
| 20260505224822 | 53 | 267 | 1.0 | 2.0 | 0.00 | 1.57 | 0.00 | 94 | 1006.9 |
| 20260505224340 | 54 | 267 | 0.0 | 2.0 | 0.00 | 1.57 | 0.00 | 94 | 1006.9 |
| 20260505223835 | 53 | 267 | 1.0 | 3.0 | 0.00 | 1.57 | 0.00 | 94 | 1007.0 |
| 20260505223333 | 53 | 267 | 1.0 | 3.0 | 0.00 | 1.57 | 0.00 | 94 | 1007.0 |
| 20260505222828 | 54 | 267 | 1.0 | 3.0 | 0.00 | 1.57 | 0.00 | 94 | 1007.0 |
| 20260505222326 | 54 | 267 | 1.0 | 2.0 | 0.00 | 1.57 | 0.00 | 94 | 1006.9 |
| 20260505221820 | 54 | 267 | 1.0 | 2.0 | 0.00 | 1.57 | 0.00 | 94 | 1007.0 |
| 20260505221320 | 54 | 267 | 1.0 | 3.0 | 0.00 | 1.57 | 0.00 | 94 | 1007.0 |
| 20260505220816 | 54 | 267 | 1.0 | 3.0 | 0.00 | 1.57 | 0.00 | 94 | 1006.9 |
| 20260505220400 | 54 | 267 | 2.0 | 3.0 | 0.00 | 1.57 | 0.00 | 94 | 1007.0 |
| 20260505215827 | 54 | 267 | 0.0 | 3.0 | 0.00 | 1.57 | 0.31 | 94 | 1007.0 |
| 20260505215327 | 54 | 267 | 1.0 | 5.0 | 0.00 | 1.57 | 0.31 | 94 | 1007.0 |
| 20260505214823 | 54 | 280 | 4.0 | 9.0 | 0.00 | 1.57 | 0.31 | 94 | 1007.1 |
| 20260505214342 | 54 | 282 | 5.0 | 9.0 | 0.00 | 1.57 | 0.31 | 94 | 1007.1 |
| 20260505213815 | 54 | 244 | 5.0 | 8.0 | 0.00 | 1.57 | 0.31 | 94 | 1007.1 |
| 20260505213314 | 54 | 192 | 2.0 | 3.0 | 0.00 | 1.57 | 0.31 | 94 | 1007.0 |
| 20260505212830 | 54 | 192 | 0.0 | 4.0 | 0.00 | 1.57 | 0.31 | 94 | 1007.1 |
| 20260505212327 | 54 | 197 | 2.0 | 4.0 | 0.00 | 1.57 | 0.31 | 94 | 1007.1 |
| 20260505211824 | 54 | 197 | 1.0 | 3.0 | 0.00 | 1.57 | 0.31 | 94 | 1007.1 |
| 20260505211322 | 54 | 197 | 2.0 | 3.0 | 0.00 | 1.57 | 0.31 | 94 | 1007.2 |
| 20260505210818 | 54 | 197 | 3.0 | 3.0 | 0.00 | 1.57 | 0.31 | 94 | 1007.1 |
| 20260505210317 | 54 | 196 | 1.0 | 2.0 | 0.00 | 1.57 | 0.31 | 94 | 1007.2 |
| 20260505205834 | 54 | 197 | 1.0 | 2.0 | 0.00 | 1.57 | 0.31 | 94 | 1007.3 |
| 20260505205331 | 54 | 197 | 0.0 | 2.0 | 0.00 | 1.57 | 0.31 | 94 | 1007.2 |
| 20260505204847 | 54 | 196 | 1.0 | 2.0 | 0.00 | 1.57 | 0.31 | 94 | 1007.3 |
| 20260505204324 | 54 | 196 | 1.0 | 2.0 | 0.00 | 1.57 | 0.31 | 94 | 1007.2 |
| 20260505203820 | 54 | 196 | 1.0 | 3.0 | 0.00 | 1.57 | 0.31 | 94 | 1007.3 |
| 20260505203317 | 54 | 196 | 2.0 | 3.0 | 0.00 | 1.57 | 0.31 | 94 | 1007.4 |
| 20260505202832 | 54 | 196 | 1.0 | 2.0 | 0.00 | 1.57 | 0.31 | 94 | 1007.4 |
| 20260505202331 | 54 | 196 | 1.0 | 3.0 | 0.00 | 1.57 | 0.31 | 94 | 1007.4 |
| 20260505201826 | 54 | 196 | 2.0 | 3.0 | 0.00 | 1.57 | 0.31 | 94 | 1007.3 |
| 20260505201324 | 54 | 196 | 0.0 | 2.0 | 0.00 | 1.57 | 0.31 | 94 | 1007.3 |
| 20260505200819 | 55 | 196 | 0.0 | 4.0 | 0.00 | 1.57 | 0.31 | 94 | 1007.3 |
| 20260505200318 | 55 | 196 | 1.0 | 4.0 | 0.00 | 1.57 | 0.31 | 94 | 1007.2 |
| 20260505195814 | 55 | 171 | 2.0 | 4.0 | 0.00 | 1.57 | 0.31 | 94 | 1007.3 |
| 20260505195333 | 55 | 171 | 0.0 | 2.0 | 0.00 | 1.57 | 0.31 | 94 | 1007.2 |
| 20260505194829 | 55 | 171 | 1.0 | 3.0 | 0.08 | 1.57 | 0.31 | 94 | 1007.1 |
| 20260505194350 | 55 | 171 | 2.0 | 4.0 | 0.08 | 1.57 | 0.31 | 94 | 1007.2 |
| 20260505193824 | 55 | 171 | 2.0 | 5.0 | 0.08 | 1.57 | 0.31 | 94 | 1007.1 |
| 20260505193322 | 55 | 126 | 2.0 | 4.0 | 0.08 | 1.57 | 0.31 | 94 | 1007.0 |
| 20260505192839 | 55 | 119 | 1.0 | 2.0 | 0.08 | 1.57 | 0.31 | 94 | 1006.9 |
| 20260505192315 | 55 | 118 | 1.0 | 3.0 | 0.08 | 1.57 | 0.31 | 94 | 1006.8 |
| 20260505191832 | 55 | 118 | 2.0 | 3.0 | 0.08 | 1.57 | 0.31 | 94 | 1006.9 |
| 20260505191329 | 55 | 199 | 1.0 | 2.0 | 0.08 | 1.57 | 0.31 | 94 | 1006.9 |
| 20260505190823 | 56 | 199 | 2.0 | 2.0 | 0.08 | 1.57 | 0.31 | 94 | 1006.9 |
| 20260505190320 | 56 | 199 | 2.0 | 2.0 | 0.08 | 1.57 | 0.31 | 93 | 1006.9 |
| 20260505185836 | 56 | 199 | 1.0 | 2.0 | 0.08 | 1.57 | 0.31 | 93 | 1006.9 |
| 20260505185332 | 56 | 199 | 0.0 | 1.0 | 0.04 | 1.54 | 0.31 | 93 | 1006.9 |
| 20260505184826 | 56 | 199 | 0.0 | 1.0 | 0.00 | 1.50 | 0.30 | 93 | 1007.0 |
| 20260505184326 | 56 | 199 | 0.0 | 1.0 | 0.00 | 1.50 | 0.30 | 93 | 1007.0 |
| 20260505183821 | 56 | 198 | 0.0 | 1.0 | 0.00 | 1.50 | 0.30 | 93 | 1006.9 |
| 20260505183318 | 56 | 198 | 0.0 | 2.0 | 0.00 | 1.50 | 0.30 | 93 | 1006.9 |
| 20260505182833 | 56 | 198 | 1.0 | 2.0 | 0.00 | 1.50 | 0.30 | 93 | 1006.9 |
| 20260505182331 | 56 | 198 | 1.0 | 2.0 | 0.04 | 1.50 | 0.30 | 93 | 1006.9 |
| 20260505181826 | 56 | 198 | 1.0 | 3.0 | 0.04 | 1.50 | 0.30 | 93 | 1006.9 |
| 20260505181324 | 56 | 198 | 1.0 | 3.0 | 0.04 | 1.50 | 0.30 | 93 | 1006.9 |
| 20260505180818 | 56 | 198 | 2.0 | 3.0 | 0.08 | 1.50 | 0.30 | 93 | 1006.8 |
| 20260505180315 | 56 | 198 | 1.0 | 3.0 | 0.08 | 1.50 | 0.30 | 93 | 1006.8 |
| 20260505175854 | 56 | 198 | 2.0 | 4.0 | 0.08 | 1.54 | 0.30 | 93 | 1006.9 |
| 20260505175332 | 56 | 198 | 2.0 | 4.0 | 0.08 | 1.54 | 0.30 | 93 | 1006.9 |
| 20260505174827 | 56 | 163 | 2.0 | 3.0 | 0.08 | 1.54 | 0.30 | 93 | 1006.9 |
| 20260505174326 | 56 | 163 | 2.0 | 3.0 | 0.08 | 1.54 | 0.30 | 93 | 1006.8 |
| 20260505173823 | 56 | 162 | 2.0 | 3.0 | 0.12 | 1.54 | 0.30 | 93 | 1006.8 |
| 20260505173320 | 56 | 162 | 1.0 | 5.0 | 0.20 | 1.54 | 0.30 | 93 | 1006.8 |
| 20260505172815 | 56 | 136 | 2.0 | 5.0 | 0.24 | 1.54 | 0.30 | 93 | 1006.8 |
| 20260505172358 | 56 | 136 | 3.0 | 4.0 | 0.24 | 1.50 | 0.29 | 93 | 1006.8 |
| 20260505171853 | 56 | 198 | 2.0 | 3.0 | 0.28 | 1.50 | 0.29 | 93 | 1006.8 |
| 20260505171333 | 56 | 198 | 1.0 | 2.0 | 0.31 | 1.50 | 0.29 | 93 | 1006.8 |
| 20260505170828 | 56 | 198 | 1.0 | 2.0 | 0.31 | 1.46 | 0.28 | 93 | 1006.9 |
| 20260505170327 | 56 | 198 | 1.0 | 3.0 | 0.35 | 1.46 | 0.28 | 93 | 1006.9 |
| 20260505165821 | 56 | 197 | 2.0 | 4.0 | 0.43 | 1.46 | 0.28 | 93 | 1007.0 |
| 20260505165338 | 57 | 197 | 1.0 | 4.0 | 0.51 | 1.46 | 0.28 | 92 | 1007.0 |
| 20260505164832 | 56 | 180 | 2.0 | 3.0 | 0.55 | 1.46 | 0.28 | 92 | 1007.0 |
| 20260505164330 | 56 | 50 | 1.0 | 2.0 | 0.71 | 1.42 | 0.28 | 92 | 1006.9 |
| 20260505163825 | 56 | 42 | 0.0 | 3.0 | 0.91 | 1.42 | 0.28 | 92 | 1006.9 |
| 20260505163324 | 56 | 42 | 2.0 | 3.0 | 0.91 | 1.34 | 0.26 | 92 | 1006.8 |
| 20260505162820 | 56 | 19 | 2.0 | 3.0 | 0.91 | 1.30 | 0.25 | 92 | 1006.8 |
| 20260505162320 | 57 | 19 | 0.0 | 2.0 | 0.87 | 1.26 | 0.24 | 92 | 1007.0 |
| 20260505161817 | 57 | 19 | 1.0 | 2.0 | 0.83 | 1.22 | 0.24 | 91 | 1007.0 |
| 20260505161316 | 57 | 19 | 0.0 | 2.0 | 0.79 | 1.18 | 0.23 | 91 | 1006.9 |
| 20260505160833 | 57 | 19 | 0.0 | 3.0 | 0.75 | 1.14 | 0.22 | 91 | 1006.9 |
| 20260505160332 | 57 | 19 | 1.0 | 3.0 | 0.71 | 1.10 | 0.21 | 90 | 1007.0 |
| 20260505153332 | 58 | 32 | 2.0 | 4.0 | 0.04 | 0.43 | 0.08 | 88 | 1007.1 |
| 20260505152829 | 59 | 28 | 3.0 | 8.0 | 0.00 | 0.39 | 0.07 | 87 | 1007.0 |
| 20260505152347 | 59 | 17 | 5.0 | 8.0 | 0.00 | 0.39 | 0.07 | 87 | 1007.0 |
| 20260505151823 | 59 | 42 | 1.0 | 4.0 | 0.00 | 0.39 | 0.07 | 86 | 1007.0 |
| 20260505151342 | 59 | 42 | 2.0 | 4.0 | 0.00 | 0.39 | 0.07 | 85 | 1007.0 |
| 20260505150816 | 59 | 42 | 3.0 | 5.0 | 0.00 | 0.39 | 0.07 | 83 | 1007.0 |
| 20260505150329 | 59 | 355 | 2.0 | 5.0 | 0.00 | 0.39 | 0.07 | 84 | 1007.0 |